Other Surface Observations
Issued by NWS

Current Version | Previous Version | Text Only | Print | Product List | Glossary On
Versions: 1 2 3 4 5 6 7 8 9 10 11 12 13 14 15 16 17 18 19 20 21 22 23 24 25 26 27 28 29 30 31 32 33 34 35 36 37 38 39 40 41 42 43 44 45 46 47 48 49 50
000
SXUS52 KTAE 301218
OSOTAE
OSOTAE
North Florida/South Alabama/Southwest Georgia Weather Roundup
National Weather Service Tallahassee Florida
800 AM EDT SAT AUG 30 2014

Note: "fair" indicates few or no clouds below 12,000 feet with no
significant weather and/or obstructions to visibility.

!FLZ017-115-028-034-025-301300
...North Florida...

CITY           SKY/WX    TMP DP  RH WIND       PRES   REMARKS
TALLAHASSEE    MOCLDY    75  73  93 CALM      30.11R FOG
APALACHICOLA   CLEAR     78  77  96 CALM      30.09R
PERRY          CLEAR     73  73 100 CALM      30.13R
CROSS CITY       N/A     75  73  93 CALM      30.12R
HOMERVILLE     FAIR      75  73  94 CALM      30.15R
JACKSONVILLE   PTSUNNY   74  74 100 CALM      30.14R
$$

!FLZ112-006-005-002-011-301300
...Florida Panhandle...

CITY           SKY/WX    TMP DP  RH WIND       PRES   REMARKS
MARIANNA       CLOUDY    76  76 100 CALM      30.10R FOG
BONIFAY        CLOUDY    75  74  96 CALM      30.12R FOG
PANAMA CITY NW FAIR      76  73  91 NE5       30.08R
TYNDALL AFB    PTCLDY    79  78  99 E2        30.10R
TYND DRONE APT FAIR      78  77  98 E3        30.08R
DE FUNIAK SPR  FAIR      74  74  98 CALM      30.10R
EGLIN AFB      PTCLDY    77  59  52 NE2       30.08R
DESTIN         PTCLDY    84  76  76 VRB3      30.07R HX  93
HURLBURT       PTCLDY    82  72  69 N3        30.06R
CRESTVIEW      CLOUDY    74  73  97 NE3       30.10R FOG
PENSACOLA      PTCLDY    77  75  93 S3        30.06R
$$

!ALZ063-066-301300
...South Alabama...

CITY           SKY/WX    TMP DP  RH WIND       PRES   REMARKS
DOTHAN         FOG       74  74 100 SE3       30.15R VSB 1/4
OZARK CAIRNS   FOG       73  73 100 SE2       30.11R VSB 1/2
FT RUCKER HELI FOG       74  73  97 CALM      30.10R VSB 1/2
RUCKER HELI 3  FOG       73  73  98 VRB2      30.13R VSB 1/4
RUCKER HELI 2  FOG       73  73 100 E3        30.11R VSB 1/2
FLORALA APT    MOCLDY    75  73  93 CALM      30.11R FOG
ANDALUSIA      CLOUDY    78  74  87 SE3       30.10R
TROY           MOCLDY    75  73  93 CALM      30.11R
EUFALA         CLOUDY    77  73  88 S5        30.11R FOG
MOBILE         CLOUDY    77  77 100 SE5       30.06S
$$

!GAZ120>161-301300
...Southwest and South Central Georgia...

CITY           SKY/WX    TMP DP  RH WIND       PRES   REMARKS
THOMASVILLE    CLOUDY    73  73 100 CALM      30.14R FOG
BAINBRIDGE     FOG       79  77  94 E3        30.12R VSB 1/4
MOODY AFB      MOSUNNY   74  72  93 W2        30.13R
VALDOSTA       MOSUNNY   75  73  94 CALM      30.14R
MOULTRIE       CLOUDY    73  73 100 CALM      30.14R FOG
BLAKELY        FOG       77  75  94 CALM        N/A  VSB 1/2
ALBANY         CLOUDY    75  75 100 CALM      30.15R FOG
TIFTON         MOCLDY    76  74  93 CALM      30.14R
FITZGERALD     CLOUDY    76  73  91 CALM      30.16R
CORDELE        CLOUDY    77  73  87 CALM      30.14S
AMERICUS       PTSUNNY   73  73 100 SW3       30.15R FOG
$$

!GMZ750-755-770-775-301300
...Coastal and Buoy Obs...

STATION/POSITION TIME  TEMP    WIND        PRES    VSBY  WAVE
                       AIR SEA DIR/SP/G                  HT/PER
                 (UTC) (F)     (DEG/KT/KT) (MB)    (MI)  (FT/S)
KEATON BEACH     1200   76      70/  3/  4 1020.1R
CEDAR KEY        1157   83     160/  2/  3 1020.4R
C TOWER          1200   83     130/  9/ 10 1019.0R
APALACHICOLA BUO 1200   85 86  120/ 10/ 10 1018.9R         2/ 5
PANAMA CITY BUOY 1122   85 86  120/ 10/ 12 1017.8S         2/ 5
MOBILE BUOY      1200   83     130/ 12       N/A
ORANGE BCH AL BU 1200   84 85  150/ 10/ 12 1017.5R         2/ 5
$$



USA.gov is the U.S. government's official web portal to all federal, state and local government web resources and services.